[[{"header":{"parameterUnit":"m.s-1","parameterCategory":1,"la1":30.2991,"la2":30.254,"lo1":-89.0895,"lo2":-89.0444,"dy":0.0017,"dx":0.0017,"nx":28,"ny":28,"refTime":"2025-03-16T21:00:00:Z","depth":0,"parameterNumber":2,"parameterNumberName":"U-component_of_WINDS"},"data":[0,0,0,0,0,0,0,0,0,0,0,0,0,0,0,0,0,0,0,0,0,0,0,0,0,0,0,0,0,0,0,0,0,0,0,0,0,0,0,0,0,0,0,0,0,0,0,0,0,0,0,0,0,0,0,0,0,0,-2.5094,-2.5094,0,-2.5138,-2.5138,-2.5139,-2.5138,-2.5137,-2.5137,-2.5136,-2.5181,-2.5183,-2.5185,0,0,0,0,0,0,0,0,0,0,0,0,0,-2.5011,-2.5013,-2.5094,-2.5094,-2.5095,-2.5138,-2.5138,-2.5139,-2.5138,-2.5137,-2.5136,-2.5136,-2.5181,-2.5183,-2.5185,0,0,0,0,0,0,0,0,0,0,0,0,0,-2.505,-2.5013,-2.5094,-2.51,-2.5101,-2.5138,-2.5138,-2.5139,-2.5138,-2.5137,-2.5136,-2.5135,-2.518,-2.5183,-2.5185,-2.522,0,0,-2.5193,-2.5195,0,0,0,0,0,0,0,0,-2.5048,-2.5053,-2.5098,-2.5099,-2.51,-2.5131,-2.5126,-2.5166,-2.5138,-2.5124,-2.5136,-2.5135,-2.5166,-2.5169,-2.518,-2.5222,-2.5224,-2.5194,-2.5195,-2.5196,-2.5197,0,0,0,0,0,0,0,-2.5045,-2.5051,-2.5111,-2.5099,-2.51,-2.5101,-2.5105,-2.5133,-2.5149,-2.5125,-2.5125,-2.513,-2.5166,-2.5177,-2.5181,-2.5224,-2.5194,-2.5196,-2.5198,-2.5199,-2.5298,-2.5299,0,0,0,0,0,0,-2.5041,-2.5049,-2.511,-2.5113,-2.5071,-2.5103,-2.5108,-2.5122,-2.5149,-2.5152,-2.5131,-2.513,-2.5173,-2.5177,-2.5182,-2.5224,-2.5196,-2.5199,-2.52,-2.5297,-2.5299,-2.53,0,0,0,0,0,0,-2.5039,-2.5047,-2.5108,-2.5081,-2.5089,-2.5105,-2.5121,-2.5124,-2.5135,-2.5153,-2.5156,-2.5139,-2.5172,-2.5178,-2.5211,-2.5226,-2.52,-2.5202,-2.5296,-2.5298,-2.5299,-2.5309,0,0,0,0,0,0,-2.5037,-2.5046,-2.5058,-2.5081,-2.509,-2.5135,-2.5122,-2.5125,-2.5139,-2.5138,-2.5162,-2.5165,-2.5172,-2.5207,-2.5213,-2.5229,-2.5204,-2.5295,-2.5297,-2.5299,-2.5307,-2.5311,-2.5313,0,0,0,0,0,-2.5034,-2.5059,-2.5059,-2.5066,-2.5106,-2.5136,-2.5141,-2.5149,-2.514,-2.5154,-2.5166,-2.5164,-2.5224,-2.521,-2.5217,-2.5234,-2.5294,-2.5296,-2.5298,-2.5306,-2.531,-2.5313,0,0,0,0,0,0,-2.5038,-2.5062,-2.5062,-2.5096,-2.5114,-2.5136,-2.5152,-2.5153,-2.5174,-2.5172,-2.5181,-2.5187,-2.5219,-2.523,-2.5214,-2.527,-2.5258,-2.5262,-2.5261,-2.5265,-2.5268,-2.5264,-2.5207,0,0,0,0,0,-2.5042,-2.5064,-2.5085,-2.5112,-2.5121,-2.5135,-2.5149,-2.5153,-2.5173,-2.518,-2.5195,-2.5214,-2.5237,-2.5252,-2.5274,-2.531,-2.5315,-2.5325,-2.5328,-2.5331,-2.5334,-2.5354,-2.5359,-2.5308,-2.5308,-2.5307,0,0,-2.5052,-2.5068,-2.5081,-2.5113,-2.5128,-2.5151,-2.5142,-2.5166,-2.5183,-2.5184,-2.5215,-2.5227,-2.5249,-2.5283,-2.5299,-2.5293,-2.5349,-2.5334,-2.5336,-2.5337,-2.5357,-2.5362,-2.5366,-2.5309,-2.5309,-2.5309,0,0,-2.5081,-2.5096,-2.512,-2.5136,-2.5158,-2.5168,-2.5174,-2.5196,-2.5204,-2.5236,-2.5237,-2.5258,-2.5298,-2.5313,-2.5326,-2.5364,-2.5364,-2.5372,-2.5387,-2.5407,-2.5411,-2.5415,-2.5428,-2.5433,-2.5375,-2.5375,-2.5375,0,-2.5091,-2.5124,-2.5133,-2.5158,-2.5172,-2.5175,-2.52,-2.5215,-2.5243,-2.5253,-2.5247,-2.5298,-2.5313,-2.5351,-2.536,-2.5371,-2.5379,-2.5368,-2.541,-2.5414,-2.5417,-2.543,-2.5435,-2.5376,-2.5376,-2.5375,-2.5375,0,-2.5135,-2.5159,-2.5176,-2.5204,-2.522,-2.5245,-2.5259,-2.5275,-2.5279,-2.5289,-2.5322,-2.5341,-2.5367,-2.5377,-2.5381,-2.5416,-2.5412,-2.5408,-2.5396,-2.5423,-2.5435,-2.544,-2.5377,-2.5376,-2.5376,-2.5376,0,0,-2.5165,-2.5199,-2.5205,-2.5218,-2.5244,-2.5263,-2.5289,-2.5315,-2.5329,-2.5349,-2.5371,-2.5406,-2.5403,-2.5418,-2.5424,-2.5442,-2.5471,-2.5435,-2.5436,-2.5441,-2.5512,-2.5514,-2.5519,-2.5471,-2.5472,-2.5473,-2.551,0,-2.5197,-2.5242,-2.5252,-2.5291,-2.5314,-2.5317,-2.534,-2.5359,-2.537,-2.5392,-2.5404,-2.5429,-2.5422,-2.5432,-2.545,-2.5463,-2.5485,-2.5461,-2.5492,-2.5493,-2.5485,-2.5526,-2.5528,-2.5561,-2.5514,-2.5515,-2.5516,0,-2.5239,-2.5261,-2.5302,-2.5327,-2.5336,-2.5356,-2.5382,-2.5402,-2.5424,-2.5431,-2.5449,-2.5454,-2.5482,-2.547,-2.5509,-2.5493,-2.5507,-2.5516,-2.5517,-2.5519,-2.5505,-2.5528,-2.5572,-2.5577,-2.5524,-2.5523,-2.5522,0,-2.5257,-2.5297,-2.5327,-2.5338,-2.5367,-2.5381,-2.5394,-2.5416,-2.5431,-2.5454,-2.5464,-2.549,-2.5504,-2.5524,-2.5536,-2.5526,-2.5574,-2.5563,-2.5581,-2.5581,-2.559,-2.5589,-2.5635,-2.56,-2.56,-2.56,-2.56,0,-2.5291,-2.5316,-2.5336,-2.5354,-2.5383,-2.5394,-2.5423,-2.5436,-2.5455,-2.5477,-2.5483,-2.5503,-2.5518,-2.5541,-2.5551,-2.5582,-2.5588,-2.5595,-2.5597,-2.5594,-2.5593,-2.5602,-2.56,-2.5602,-2.5601,-2.5601,-2.5601,0,-2.5315,-2.5329,-2.5362,-2.5387,-2.5394,-2.5414,-2.5436,-2.5455,-2.5467,-2.5495,-2.5502,-2.5521,-2.5548,-2.5563,-2.5597,-2.5604,-2.5639,-2.564,-2.5631,-2.5631,-2.5649,-2.5647,-2.5702,-2.571,-2.567,-2.567,-2.5671,0,-2.5335,-2.5354,-2.5382,-2.5397,-2.541,-2.5434,-2.545,-2.5463,-2.548,-2.5507,-2.5523,-2.5551,-2.5573,-2.5617,-2.5634,-2.5661,-2.5662,-2.568,-2.5666,-2.5663,-2.5662,-2.566,-2.5663,-2.5682,-2.5682,-2.5682,-2.5683,0,-2.5369,-2.5375,-2.5398,-2.5424,-2.5443,-2.5464,-2.5484,-2.5496,-2.5513,-2.5532,-2.556,-2.5577,-2.5613,-2.564,-2.5669,-2.5683,-2.5686,-2.5687,-2.5693,-2.5689,-2.5683,-2.5686,-2.5637,-2.5686,-2.5685,-2.5685,-2.5685,-2.5685,-2.5392,-2.5409,-2.5432,-2.5457,-2.5474,-2.5494,-2.5513,-2.5528,-2.5551,-2.558,-2.5587,-2.5617,-2.5641,-2.5679,-2.5694,-2.5718,-2.5714,-2.5722,-2.5724,-2.5726,-2.5726,-2.568,-2.5723,-2.5723,-2.5723,-2.5723,-2.5723,0,-2.5426,-2.5441,-2.5464,-2.5493,-2.5513,-2.5515,-2.5538,-2.5555,-2.5581,-2.5603,-2.5625,-2.5658,-2.5685,-2.5706,-2.5734,-2.5749,-2.5751,-2.5756,-2.5755,-2.5758,-2.5728,-2.572,-2.5754,-2.5754,-2.5754,-2.5754,-2.5754,-2.5754,-2.5446,-2.5476,-2.5485,-2.5525,-2.554,-2.5569,-2.5582,-2.56,-2.5618,-2.5654,-2.5677,-2.569,-2.5711,-2.5741,-2.5767,-2.5772,-2.5782,-2.5786,-2.5792,-2.5763,-2.576,-2.5757,-2.5749,-2.5789,-2.5789,-2.582,-2.582,-2.582]},{"header":{"parameterUnit":"m.s-1","parameterCategory":1,"la1":30.2991,"la2":30.254,"lo1":-89.0895,"lo2":-89.0444,"dy":0.0017,"dx":0.0017,"nx":28,"ny":28,"refTime":"2025-03-16T21:00:00:Z","depth":0,"parameterNumber":3,"parameterNumberName":"V-component_of_WINDS"},"data":[0,0,0,0,0,0,0,0,0,0,0,0,0,0,0,0,0,0,0,0,0,0,0,0,0,0,0,0,0,0,0,0,0,0,0,0,0,0,0,0,0,0,0,0,0,0,0,0,0,0,0,0,0,0,0,0,0,0,5.682,5.682,0,5.6852,5.6852,5.6852,5.6847,5.6847,5.6846,5.6846,5.6876,5.6877,5.6878,0,0,0,0,0,0,0,0,0,0,0,0,0,5.6753,5.6754,5.682,5.682,5.6821,5.6852,5.6852,5.6853,5.6848,5.6847,5.6846,5.6846,5.6875,5.6877,5.6879,0,0,0,0,0,0,0,0,0,0,0,0,0,5.6783,5.6755,5.682,5.6822,5.6822,5.6852,5.6852,5.6853,5.6848,5.6847,5.6846,5.6845,5.6875,5.6877,5.6879,5.6907,0,0,5.6885,5.6885,0,0,0,0,0,0,0,0,5.6782,5.6786,5.6821,5.6822,5.6822,5.6845,5.684,5.6871,5.6848,5.6838,5.6846,5.6845,5.6866,5.6869,5.6876,5.6908,5.6909,5.6885,5.6886,5.6887,5.6887,0,0,0,0,0,0,0,5.6779,5.6784,5.6832,5.6822,5.6822,5.6821,5.6824,5.6845,5.6856,5.6839,5.6839,5.6843,5.6866,5.6874,5.6877,5.691,5.6885,5.6886,5.6888,5.6888,5.6969,5.697,0,0,0,0,0,0,5.6777,5.6783,5.6831,5.6833,5.68,5.6823,5.6827,5.6838,5.6856,5.6858,5.6843,5.6842,5.6872,5.6875,5.6878,5.6913,5.6887,5.6889,5.689,5.6968,5.6969,5.697,0,0,0,0,0,0,5.6776,5.6781,5.683,5.6808,5.6814,5.6825,5.6838,5.6839,5.6848,5.6859,5.6861,5.685,5.6871,5.6875,5.69,5.6914,5.689,5.6891,5.6967,5.6968,5.6969,5.6984,0,0,0,0,0,0,5.6774,5.6781,5.6792,5.6808,5.6815,5.6852,5.6839,5.6841,5.6851,5.685,5.6866,5.6868,5.6871,5.6898,5.6902,5.6917,5.6893,5.6965,5.6967,5.6969,5.6982,5.6985,5.6988,0,0,0,0,0,5.6771,5.6793,5.6792,5.6798,5.6829,5.6853,5.6857,5.6861,5.6853,5.6864,5.6871,5.6867,5.6912,5.69,5.6905,5.692,5.6964,5.6967,5.6969,5.698,5.6985,5.6988,0,0,0,0,0,0,5.6777,5.6795,5.6795,5.6823,5.6837,5.6852,5.6866,5.6865,5.688,5.6879,5.6882,5.6886,5.6912,5.6918,5.6905,5.695,5.6937,5.694,5.6944,5.6948,5.6951,5.6949,5.6894,0,0,0,0,0,5.6781,5.68,5.6815,5.6838,5.6846,5.6855,5.6865,5.6867,5.6881,5.6887,5.6896,5.6909,5.6927,5.6938,5.6954,5.6983,5.6987,5.6996,5.6999,5.7002,5.7005,5.7022,5.7027,5.6977,5.6977,5.6977,0,0,5.6791,5.6803,5.6814,5.684,5.6851,5.687,5.6859,5.6879,5.6893,5.6889,5.6914,5.6922,5.6937,5.6965,5.6977,5.6971,5.702,5.7005,5.7007,5.7008,5.7025,5.703,5.7034,5.6978,5.6978,5.6978,0,0,5.6818,5.6829,5.6851,5.6862,5.688,5.6886,5.6892,5.6908,5.6913,5.6939,5.6937,5.6953,5.6982,5.6994,5.7003,5.7038,5.7035,5.7043,5.7059,5.7076,5.708,5.7084,5.7097,5.7101,5.7046,5.7046,5.7046,0,5.6827,5.6856,5.6861,5.6883,5.6894,5.6893,5.6916,5.6926,5.6948,5.6956,5.6949,5.6987,5.6997,5.7028,5.7037,5.7044,5.7051,5.7041,5.7079,5.7083,5.7086,5.7099,5.7104,5.7047,5.7046,5.7046,5.7046,0,5.6867,5.6887,5.6903,5.6926,5.6939,5.696,5.6969,5.6982,5.6984,5.6991,5.7017,5.703,5.7049,5.7057,5.7057,5.7089,5.7085,5.7079,5.7066,5.7092,5.7104,5.7109,5.7048,5.7048,5.7047,5.7047,0,0,5.6897,5.6924,5.693,5.6941,5.6961,5.6977,5.6999,5.702,5.7031,5.7046,5.7065,5.7091,5.7087,5.7098,5.71,5.7115,5.7143,5.7107,5.7108,5.7114,5.7179,5.7184,5.7189,5.7141,5.7142,5.7143,5.7178,0,5.6926,5.6966,5.6973,5.7008,5.7027,5.7028,5.7047,5.7062,5.7069,5.7087,5.7095,5.7114,5.7106,5.7113,5.7127,5.7136,5.7156,5.7134,5.7158,5.7159,5.7155,5.7195,5.72,5.7233,5.7183,5.7183,5.7184,0,5.6966,5.6985,5.7022,5.7042,5.705,5.7067,5.7088,5.7105,5.7122,5.7126,5.714,5.7141,5.7164,5.7151,5.7183,5.7168,5.7178,5.7184,5.7186,5.7188,5.7173,5.72,5.7243,5.7248,5.7191,5.7191,5.719,0,5.6985,5.7019,5.7047,5.7056,5.708,5.7092,5.7102,5.7118,5.7131,5.7149,5.7158,5.7177,5.7188,5.7203,5.721,5.72,5.7242,5.7229,5.7247,5.7247,5.7255,5.7255,5.7302,5.7261,5.7261,5.7261,5.7261,0,5.7018,5.7041,5.7056,5.7073,5.7099,5.7107,5.7132,5.7142,5.7157,5.7176,5.7177,5.7194,5.7202,5.722,5.7225,5.7252,5.7256,5.7261,5.7262,5.7261,5.7261,5.7268,5.7266,5.7263,5.7262,5.7262,5.7262,0,5.7044,5.7055,5.7085,5.7106,5.7112,5.713,5.7148,5.7164,5.7172,5.7196,5.7202,5.7215,5.7237,5.7246,5.7272,5.7275,5.7306,5.7305,5.7301,5.7302,5.7319,5.7318,5.7373,5.7381,5.7335,5.7335,5.7336,0,5.7064,5.7082,5.7106,5.7119,5.7131,5.7152,5.7166,5.7174,5.7188,5.721,5.7224,5.7247,5.7265,5.7301,5.7312,5.7332,5.7332,5.735,5.7335,5.7334,5.7334,5.7333,5.7335,5.7353,5.7354,5.7354,5.7354,0,5.71,5.7105,5.7125,5.7149,5.7166,5.7184,5.7201,5.7212,5.7223,5.7239,5.7263,5.7277,5.7306,5.7328,5.735,5.7359,5.7359,5.7359,5.7364,5.7364,5.7361,5.7364,5.7309,5.7358,5.7357,5.7357,5.7357,5.7357,5.7124,5.7141,5.7161,5.7184,5.7199,5.7216,5.7233,5.7245,5.7265,5.729,5.7293,5.7319,5.7337,5.7366,5.7377,5.7397,5.7392,5.74,5.7402,5.7404,5.7405,5.7358,5.7401,5.7401,5.7401,5.7401,5.7401,0,5.716,5.7174,5.7196,5.7221,5.724,5.724,5.7259,5.7275,5.7298,5.7315,5.7334,5.7362,5.7384,5.7398,5.7421,5.7434,5.7435,5.744,5.7439,5.7442,5.7408,5.7402,5.7439,5.7439,5.7439,5.7439,5.7439,5.7439,5.7182,5.7211,5.7219,5.7256,5.7269,5.7295,5.7307,5.7323,5.7337,5.7369,5.7388,5.7398,5.7414,5.7438,5.7459,5.7462,5.7471,5.7476,5.748,5.7448,5.7444,5.744,5.7434,5.7478,5.7478,5.7512,5.7512,5.7512]}]]